This demonstration page uses our WeatherBlox Daily Observations layout. Learn more.

Left ArrowRight Arrow

Hourly Observations for December 4, 2019

Temp ( °F °C ) Dew Point ( °F °C ) Humidity (%) Winds ( mph kmh ) Pressure ( in mb ) Visibility ( mi km ) Precip ( " mm )
12:53 am 00:53 Cloudy 53 11.7 44 6.7 72 72 NW 3 6 29.89 1012 10 16 0.00 0.00
1:53 am 01:53 Cloudy 50 10 45 7.2 83 83 Calm 29.88 1012 10 16 0.00 0.00
2:53 am 02:53 Mostly Cloudy 49 9.4 45 7.2 86 86 Calm 29.87 1011 10 16 0.00 0.00
3:53 am 03:53 Mostly Cloudy 46 7.8 44 6.7 93 93 Calm 29.87 1012 7 11 0.00 0.00
4:53 am 04:53 Clear 45 7.2 42 5.6 90 90 ESE 5 7 29.88 1012 9 14 0.00 0.00
5:53 am 05:53 Partly Cloudy 45 7.2 44 6.7 97 97 S 5 7 29.90 1013 8 13 0.00 0.00
6:03 am 06:03 Mostly Cloudy 47 8.3 45 7.2 93 93 SW 3 6 29.92 1013 8 13 0.00 0.00
6:29 am 06:29 Cloudy with Mist and Fog 48 8.9 46 7.8 93 93 Calm 29.92 1013 2 3 0.00 0.00
6:37 am 06:37 Mostly Cloudy with Mist and Fog 48 8.9 46 7.8 93 93 Calm 29.92 1013 1 1 0.00 0.00
6:53 am 06:53 Mostly Cloudy with Fog 47 8.3 45 7.2 93 93 N 3 6 29.90 1013 1 1 0.00 0.00
7:53 am 07:53 Mostly Cloudy with Fog 47 8.3 46 7.8 97 97 N 6 9 29.90 1012 1 1 0.00 0.00
8:35 am 08:35 Mostly Cloudy with Fog 48 8.9 47 8.3 96 96 NNE 3 6 29.91 1013 0 0 0.00 0.00
8:53 am 08:53 Mostly Cloudy with Fog 49 9.4 48 8.9 97 97 N 3 6 29.90 1013 0 0 0.00 0.00
9:26 am 09:26 Cloudy with Mist and Fog 49 9.4 48 8.9 97 97 Calm 29.92 1013 1 1 0.00 0.00
9:53 am 09:53 Cloudy with Mist and Fog 49 9.4 48 8.9 97 97 Calm 29.91 1013 3 4 0.00 0.00
10:03 am 10:03 Cloudy with Mist and Fog 49 9.4 47 8.3 93 93 Calm 29.92 1013 3 5 0.00 0.00
10:12 am 10:12 Cloudy with Mist and Fog 49 9.4 48 8.9 97 97 WSW 3 6 29.92 1013 3 4 0.00 0.00
10:35 am 10:35 Cloudy with Mist and Fog 50 10 48 8.9 93 93 Calm 29.92 1013 3 5 0.00 0.00
10:53 am 10:53 Cloudy with Mist and Fog 50 10 48 8.9 93 93 W 3 6 29.91 1013 4 6 0.00 0.00
11:53 am 11:53 Cloudy with Haze 52 11.1 47 8.3 83 83 Calm 29.89 1012 4 6 0.00 0.00
12:53 pm 12:53 Cloudy 54 12.2 44 6.7 69 69 Calm 29.85 1011 10 16 0.00 0.00
1:53 pm 13:53 Mostly Cloudy 55 12.8 44 6.7 67 67 VRB 3 6 29.84 1010 10 16 0.00 0.00
2:53 pm 14:53 Cloudy 55 12.8 45 7.2 69 69 SSW 3 6 29.83 1010 10 16 0.00 0.00
3:53 pm 15:53 Cloudy 55 12.8 46 7.8 72 72 SW 3 6 29.83 1010 7 11 0.00 0.00
4:53 pm 16:53 Cloudy 54 12.2 47 8.3 77 77 ESE 3 6 29.85 1011 9 14 0.00 0.00
5:53 pm 17:53 Cloudy 53 11.7 47 8.3 80 80 Calm 29.86 1011 8 13 0.00 0.00
6:53 pm 18:53 Cloudy 53 11.7 47 8.3 80 80 Calm 29.88 1012 9 14 0.00 0.00
7:53 pm 19:53 Cloudy 52 11.1 48 8.9 86 86 E 3 6 29.89 1012 9 14 0.00 0.00
8:53 pm 20:53 Cloudy 52 11.1 48 8.9 86 86 Calm 29.93 1013 8 13 0.00 0.00
9:53 pm 21:53 Cloudy 51 10.6 48 8.9 89 89 Calm 29.95 1014 7 11 0.00 0.00
10:01 pm 22:01 Cloudy 51 10.6 48 8.9 89 89 Calm 29.96 1014 7 11 0.00 0.00
10:53 pm 22:53 Cloudy with Mist and Fog 52 11.1 48 8.9 86 86 Calm 29.98 1015 6 10 0.00 0.00
11:51 pm 23:51 Cloudy 54 12 48 9 82 82 SSW 3 6 29.99 1016 8 13 0.00 0.00
11:53 pm 23:53 Cloudy 53 11.7 48 8.9 83 83 Calm 29.98 1015 8 13 0.00 0.00

Powered by AerisWeather